Methuen, Massachusetts, United States (01844)
Lat: 42.73N, Lon: 71.19W
Wx Zone: MAZ006
Local Info
Past Weather Observations for Thursday, July 2, 2015

NOTE: This archive is for the closest National Weather Service station to Methuen. Information may differ from the station used for current weather conditions.

Click here for Long-term Archive

Time Weather Temperature Dewpoint Humidity Pressure Winds Precip Visibility
23:54
Clear
63°F / 17°C 57°F / 14°C 83% 29.89 in
(1012 mb)
Calm - 10SM
22:54
Clear
64°F / 18°C 57°F / 14°C 78% 29.89 in
(1012 mb)
N 3.5 mph
(N 6 kph)
- 10SM
21:54
Clear
66°F / 19°C 61°F / 16°C 83% 29.89 in
(1012 mb)
SSE 3.5 mph
(SSE 6 kph)
- 10SM
20:54
Clear
66°F / 19°C 59°F / 15°C 78% 29.89 in
(1012 mb)
Calm - 10SM
19:54
Clear
70°F / 21°C 59°F / 15°C 69% 29.89 in
(1012 mb)
S 3.5 mph
(S 6 kph)
- 10SM
18:54
Clear
73°F / 23°C 57°F / 14°C 57% 29.89 in
(1012 mb)
SW 5.8 mph
(SW 9 kph)
- 10SM
17:54
Clear
75°F / 24°C 57°F / 14°C 54% 29.89 in
(1012 mb)
SSW 9.2 mph
(SSW 15 kph)
- 10SM
16:54
Clear
75°F / 24°C 55°F / 13°C 50% 29.89 in
(1012 mb)
SSW 10.4 mph
(SSW 17 kph)
- 10SM
15:54
Partly Cloudy
75°F / 24°C 55°F / 13°C 50% 29.89 in
(1012 mb)
SSW 13.8 mph
(SSW 22 kph)
- 10SM
14:54
Partly Cloudy
77°F / 25°C 55°F / 13°C 47% 29.89 in
(1012 mb)
SSW 12.7 mph
(SSW 20 kph)
- 10SM
13:54
Partly Cloudy
77°F / 25°C 55°F / 13°C 47% 29.89 in
(1012 mb)
SSW 8.1 mph
(SSW 13 kph)
- 10SM
12:54
Partly Cloudy
77°F / 25°C 57°F / 14°C 51% 29.89 in
(1012 mb)
SSW 9.2 mph
(SSW 15 kph)
- 10SM
11:54
Mostly Cloudy
75°F / 24°C 57°F / 14°C 54% 29.89 in
(1012 mb)
SSW 9.2 mph
(SSW 15 kph)
- 10SM
10:54
Partly Cloudy
75°F / 24°C 57°F / 14°C 54% 29.89 in
(1012 mb)
SSW 10.4 mph
(SSW 17 kph)
- 10SM
09:54
Clear
73°F / 23°C 57°F / 14°C 57% 29.89 in
(1012 mb)
Variable 6.9 mph
(Variable 11 kph)
- 10SM
08:54
Clear
72°F / 22°C 59°F / 15°C 65% 29.89 in
(1012 mb)
SSW 9.2 mph
(SSW 15 kph)
- 10SM
07:54
Clear
70°F / 21°C 59°F / 15°C 69% 29.89 in
(1012 mb)
W 8.1 mph
(W 13 kph)
- 10SM
06:54
Clear
66°F / 19°C 57°F / 14°C 73% 29.89 in
(1012 mb)
SSW 9.2 mph
(SSW 15 kph)
- 10SM
05:54
Clear
64°F / 18°C 57°F / 14°C 78% 29.86 in
(1011 mb)
W 5.8 mph
(W 9 kph)
- 10SM
04:54
Clear
63°F / 17°C 57°F / 14°C 83% 29.86 in
(1011 mb)
SW 4.6 mph
(SW 7 kph)
- 10SM
03:54
Clear
61°F / 16°C 57°F / 14°C 88% 29.83 in
(1010 mb)
SW 5.8 mph
(SW 9 kph)
- 10SM
02:54
Clear
63°F / 17°C 57°F / 14°C 83% 29.83 in
(1010 mb)
SW 6.9 mph
(SW 11 kph)
- 10SM
01:54
Clear
64°F / 18°C 57°F / 14°C 78% 29.83 in
(1010 mb)
SSW 6.9 mph
(SSW 11 kph)
- 10SM
00:54
Clear
64°F / 18°C 59°F / 15°C 83% 29.83 in
(1010 mb)
SW 8.1 mph
(SW 13 kph)
- 10SM
Time Weather Temperature Dewpoint Humidity Pressure Winds Precip Visibility


Weather for websites

WeatherForYou.com, LLC is not responsible for any damages or problems caused by this service. Current weather conditions are obtained from the closest station including government and personal stations which may have varying degrees of accuracy. Weather forecasts are derived from the NOAA NDFD. Like all things, this site belongs to Jesus Christ... He just trusts us to maintain it. If you have any questions or comments email webmaster@weatherforyou.com

Copyright © 2015, WeatherForYou.com LLC. All rights reserved.